STARLINK-11343, 62017

Orbit data source: Space-Track

STARLINK-11343, 62017 is a payload satellite owned by SpaceX/Seattle (US) in LEO that was launched on Mon, 18 Nov 2024 UTC via an FALCON 9 launch vehicle from the Air Force Western Test Range (AFWTR). Payload-class satellites include a variety of spacecraft equipped with specific instruments for various scientific and technological missions. These include communications satellites like Starlink; space stations such as the ISS; scientific satellites like the Hubble; Earth observation satellites from companies like Planet Labs, Umbra, and HawkEye 360; GPS; miniature CubeSats for education and research; and military/defense satellites.

Loading next visibility...
Identifier
62017, 2024-213K
Orbit
LEO
Country
Flag of USUS
Related business
Manufacturer
SpaceX/Seattle
Mission
Operational Commercial Communications
Bus & Motor
STARLINK V2MD, Unknown motor
Mass
960 kg wet, ~910 kg dry
Launch date (UTC)
2024-11-18 (1 year ago)
Launch vehicle
FALCON 9
Launch site
Air Force Western Test Range (AFWTR)
Object type
Payload
Rocket body
Debris
Shape & HBR
Box + 2 Pan, 18.1 m
Radar Cross Section
36.964 m², Large (>1 m²)

Expand to show TLE details & history
Last TLE update: 15 hours ago

TLE from 15 hours ago
0 STARLINK-11343
1 62017U 24213K   26127.20177203  .00175931  00000-0  14249-2 0  9996
2 62017  53.1575 112.9324 0001233  66.8235 293.2913 15.69736210 84107
Epoch: 2026-05-07T04:50Z
TLE epoch observation values (Epoch: 2026-05-07T04:50:33.103Z)
Latitude
0.00001°
Longitude
175.24317°
Altitude
360.238 km
Speed
7.695 km/s
True Right ascension
07h 31m 43s
True Declination
0° 00' 00"
Sunlit
Object was in daylight at epoch
Visualization orbit readout
Latitude
Unknown
Longitude
Unknown
Altitude
Unknown
Speed
Unknown
Apparent Right ascension
Unknown
Apparent Declination
Unknown
Sunlit
N/A
Visualization observer readout
Local Sidereal Time
03:38:50
Azimuth
Unknown
Elevation
Unknown
Doppler factor
Unknown
Orbital elements
Apogee altitude
360.744 km
Perigee altitude
359.082 km
Semi-major axis
6,738.05 km
Eccentricity
0.00012
Inclination
53.1575°
RAAN
112.9324°
Arg. of periapsis
66.8235°
True anomaly
293.27832°
Mean anomaly
293.2913°
Eccentric anomaly
293.28481°
Mean motion
3.92412 °/min
Orbital period
91.74 mins
BSTAR
0.0014249
Loading maneuver chart data...
Computing Atmospheric mass density...
Loading historical data...
Loading historical data...
Loading historical data...
Loading historical data...
Loading historical data...
Loading historical data...
Loading historical data...

Documentation

Showing up to 5 results
|